Location: Newark
(48.1500°N, 2.9667°W)
Time: 00:09:21
(UTC+00:00)

Courier 1B - Pass Details

Date: 26 January 2020
Orbit: 962 x 1209 km, 28.3° (Epoch: 20 February)

Event Time Altitude Azimuth Distance (km) Brightness Sun altitude
Exits shadow 04:27:59 16° 175° (S) 2,640 9.7 -33.2°
Drops below altitude 10° 04:31:53 10° 144° (SE) 3,086 10.4 -32.5°
Sets 04:36:05 0° 124° (ESE) 4,080 11.4 -31.9°
